Weather History for KNRB - April, 2013

Change the Weather History Date:

Thursday, April 4, 2013

  Actual Average Record
Temperature  
Mean Temperature 71 °F -  
Max Temperature 78 °F 73 °F 89 °F (2007)
Min Temperature 64 °F 58 °F 52 °F (1997)
Cooling Degree Days 6    
Growing Degree Days 21 (Base 50)    
Moisture  
Dew Point 65 °F    
Average Humidity 86    
Maximum Humidity 100    
Minimum Humidity 64    
Precipitation  
Precipitation 0.25 in - - ()
Sea Level Pressure  
Sea Level Pressure 29.95 in    
Wind  
Wind Speed 9 mph (SE)    
Max Wind Speed 21 mph    
Max Gust Speed 26 mph    
Visibility 8 miles    
Events Rain    
Averages and records for this station are not official NWS values.
T = Trace of Precipitation, MM = Missing Value Source: NWS Daily Summary

Daily Weather History Graph

Daily Weather History Graph

Search for Another Location

Airport or City:

Trip Planner

Search our weather history database for the weather conditions in past years. The results will help you decide how hot, cold, wet, or windy it might be!

Date:

Astronomy

Apr. 04, 2013 Rise Set
Actual Time 7:10 AM EDT 7:46 PM EDT
Civil Twilight 6:46 AM EDT 8:10 PM EDT
Nautical Twilight 6:18 AM EDT 8:39 PM EDT
Astronomical Twilight 5:49 AM EDT 9:08 PM EDT
Moon 3:13 AM EDT (4/4) 2:25 PM EDT (4/4)
Length of Visible Light 13h 24m
Length of Day
12h 35m
Waning Crescent, 34% of the Moon is Illuminated
Apr 4
Waning Crescent
Apr 10
New
Apr 18
First Quarter
Apr 25
Full
May 2
Last Quarter

Hourly Weather History & Observations

Time (EDT) Temp. Dew Point Humidity Pressure Visibility Wind Dir Wind Speed Gust Speed Precip Events Conditions
12:52 AM 64.9 °F 63.0 °F 93% 30.07 in 9.0 mi East 9.2 mph - 0.01 in   Overcast
1:23 AM 64.4 °F 62.6 °F 94% 30.07 in 4.0 mi ENE 6.9 mph - 0.03 in Rain Rain
1:52 AM 64.9 °F 64.0 °F 97% 30.05 in 8.0 mi East 11.5 mph - 0.06 in   Overcast
2:52 AM 64.9 °F 63.0 °F 93% 30.02 in 5.0 mi ESE 12.7 mph - 0.03 in Rain Rain
3:16 AM 64.4 °F 62.6 °F 94% 30.02 in 10.0 mi East 11.5 mph - 0.00 in   Overcast
3:52 AM 64.9 °F 63.0 °F 93% 30.00 in 10.0 mi East 9.2 mph - 0.00 in Rain Light Rain
4:52 AM 64.9 °F 63.0 °F 93% 29.98 in 10.0 mi East 9.2 mph - 0.02 in   Overcast
5:52 AM 64.9 °F 63.0 °F 93% 29.97 in 10.0 mi East 8.1 mph - 0.00 in   Overcast
6:44 AM 64.4 °F 64.4 °F 100% 29.99 in 6.0 mi NE 4.6 mph - N/A   Overcast
6:52 AM 64.9 °F 64.0 °F 97% 29.98 in 6.0 mi ENE 8.1 mph - 0.01 in Rain Light Rain
7:25 AM 66.2 °F 64.4 °F 94% 29.98 in 10.0 mi ENE 8.1 mph - 0.00 in   Overcast
7:52 AM 66.9 °F 64.9 °F 93% 29.98 in 8.0 mi ESE 6.9 mph - 0.00 in Rain Light Rain
8:06 AM 66.2 °F 64.4 °F 94% 29.97 in 2.0 mi ESE 8.1 mph - 0.05 in Rain Heavy Rain
8:19 AM 66.2 °F 66.2 °F 100% 29.97 in 3.0 mi ESE 9.2 mph - 0.09 in Rain Rain
8:31 AM 66.2 °F 66.2 °F 100% 29.97 in 3.0 mi East 8.1 mph - 0.12 in Rain Light Rain
8:40 AM 66.2 °F 66.2 °F 100% 29.96 in 4.0 mi ESE 8.1 mph - 0.12 in   Overcast
8:52 AM 66.9 °F 66.0 °F 97% 29.97 in 4.0 mi SE 9.2 mph - 0.12 in   Overcast
9:52 AM 68.0 °F 66.9 °F 96% 29.96 in 5.0 mi SE 4.6 mph - N/A   Overcast
10:36 AM 69.8 °F 68.0 °F 94% 29.97 in 7.0 mi SSE 9.2 mph - N/A   Overcast
10:52 AM 70.0 °F 68.0 °F 93% 29.96 in 7.0 mi SE 6.9 mph - N/A   Overcast
11:04 AM 69.8 °F 68.0 °F 94% 29.96 in 7.0 mi SE 5.8 mph - N/A   Overcast
11:52 AM 73.9 °F 66.9 °F 79% 29.94 in 10.0 mi SSW 9.2 mph - N/A   Overcast
12:31 PM 73.4 °F 66.2 °F 78% 29.94 in 9.0 mi SE 6.9 mph - N/A   Overcast
12:52 PM 77.0 °F 66.9 °F 71% 29.94 in 10.0 mi SW 13.8 mph 20.7 mph N/A   Overcast
1:13 PM 75.2 °F 66.2 °F 73% 29.93 in 10.0 mi SW 12.7 mph 19.6 mph N/A   Overcast
1:52 PM 77.0 °F 66.0 °F 69% 29.91 in 10.0 mi SSW 12.7 mph - N/A   Overcast
2:52 PM 78.1 °F 64.9 °F 64% 29.90 in 10.0 mi SSW 17.3 mph 26.5 mph N/A   Overcast
3:52 PM 75.9 °F 64.0 °F 67% 29.87 in 10.0 mi SSW 20.7 mph 25.3 mph N/A   Overcast
4:52 PM 75.9 °F 64.0 °F 67% 29.86 in 10.0 mi SW 16.1 mph 24.2 mph N/A   Overcast
5:52 PM 75.0 °F 63.0 °F 66% 29.86 in 10.0 mi SW 15.0 mph 23.0 mph N/A   Overcast
6:52 PM 73.0 °F 62.1 °F 68% 29.87 in 10.0 mi WSW 9.2 mph - N/A   Mostly Cloudy
7:52 PM 71.1 °F 63.0 °F 75% 29.86 in 10.0 mi SW 5.8 mph - N/A   Mostly Cloudy
8:52 PM 71.1 °F 63.0 °F 75% 29.88 in 10.0 mi WSW 5.8 mph - N/A   Mostly Cloudy
9:52 PM 70.0 °F 63.0 °F 78% 29.90 in 10.0 mi WSW 4.6 mph - N/A   Mostly Cloudy
10:52 PM 70.0 °F 63.0 °F 78% 29.91 in 10.0 mi West 3.5 mph - N/A   Mostly Cloudy
11:52 PM 69.1 °F 63.0 °F 81% 29.90 in 10.0 mi WSW 5.8 mph - N/A   Mostly Cloudy